GW1560 Weather Reports


Display with metric or nautical units.
time (UTC)temp
F
wind
direction
speed
MPH
gust
MPH
rain 1hr
in
rain 24hr
in
rain mn
in
humidity
%
barometer
mb
20260506221538 44 16 3.0 14.0 0.01 0.55 0.52 96 1007.1
20260506220041 44 30 4.0 10.0 0.01 0.55 0.52 97 1007.3
20260506214543 45 338 4.0 11.0 0.01 0.55 0.52 97 1007.2
20260506213042 45 341 3.0 8.0 0.01 0.55 0.52 97 1006.9
20260506211540 45 31 4.0 15.0 0.00 0.54 0.52 96 1006.5
20260506210037 46 312 4.0 12.0 0.01 0.54 0.52 96 1006.2
20260506204542 46 16 4.0 9.0 0.02 0.58 0.52 97 1005.8
20260506203044 46 44 3.0 9.0 0.02 0.58 0.52 97 1005.4
20260506201539 46 23 3.0 9.0 0.03 0.58 0.52 97 1005.6
20260506200038 46 341 7.0 15.0 0.02 0.57 0.51 96 1005.4
20260506194542 47 9 3.0 10.0 0.02 0.56 0.50 96 1005.5
20260506193043 47 311 4.0 16.0 0.02 0.56 0.50 96 1005.1
20260506191551 50 336 4.0 10.0 0.01 0.55 0.49 96 1004.8
20260506190042 52 332 3.0 12.0 0.01 0.55 0.49 96 1004.4
20260506184539 56 325 2.0 7.0 0.00 0.54 0.48 97 1004.4
20260506183039 56 221 1.0 8.0 0.00 0.54 0.48 97 1004.1
20260506181544 56 165 1.0 7.0 0.00 0.54 0.48 97 1004.2
20260506180039 56 221 1.0 7.0 0.00 0.54 0.48 97 1004.2
20260506174540 56 178 1.0 4.0 0.00 0.54 0.48 97 1004.2
20260506173052 56 185 1.0 6.0 0.00 0.54 0.48 97 1004.1
20260506171539 56 205 2.0 7.0 0.01 0.54 0.48 97 1004.3
20260506170036 56 0 1.0 4.0 0.01 0.54 0.48 97 1004.6
20260506164536 55 238 1.0 4.0 0.02 0.54 0.48 97 1004.5
20260506163041 55 171 2.0 7.0 0.05 0.54 0.48 97 1004.5
20260506161542 55 196 1.0 4.0 0.06 0.52 0.47 97 1004.6
20260506160040 55 187 1.0 3.0 0.08 0.52 0.47 97 1004.6
20260506154540 54 178 1.0 8.0 0.09 0.52 0.46 97 1004.8
20260506153035 54 187 2.0 8.0 0.07 0.48 0.42 97 1004.7
20260506151545 54 190 2.0 5.0 0.07 0.47 0.41 97 1004.9
20260506150038 54 168 2.0 10.0 0.07 0.45 0.39 97 1004.7
20260506144558 54 178 1.0 12.0 0.06 0.42 0.36 97 1004.6
20260506143038 54 178 2.0 9.0 0.08 0.41 0.35 97 1004.6
20260506141538 53 178 1.0 7.0 0.11 0.40 0.34 97 1004.7
20260506140042 53 51 0.0 5.0 0.13 0.38 0.32 97 1004.9
20260506134542 53 232 0.0 4.0 0.14 0.36 0.30 96 1005.3
20260506133043 53 187 0.0 3.0 0.14 0.33 0.27 96 1005.7
20260506131544 53 250 1.0 8.0 0.10 0.29 0.23 96 1006.0
20260506130044 53 178 1.0 6.0 0.07 0.25 0.19 96 1005.9
20260506124540 53 201 1.0 4.0 0.05 0.25 0.16 96 1005.4
20260506123040 53 205 1.0 4.0 0.02 0.22 0.13 96 1005.6
20260506121538 53 239 1.0 7.0 0.03 0.22 0.13 96 1005.7
20260506120038 53 137 1.0 4.0 0.03 0.21 0.12 96 1005.6
20260506114542 52 196 1.0 4.0 0.04 0.20 0.11 96 1005.6
20260506113041 52 236 1.0 8.0 0.05 0.19 0.10 96 1005.6
20260506111538 52 227 1.0 3.0 0.07 0.19 0.10 95 1006.0
20260506110038 52 232 1.0 3.0 0.07 0.18 0.09 95 1006.0
20260506104535 52 178 1.0 5.0 0.06 0.16 0.07 95 1006.0
20260506103042 52 221 1.0 3.0 0.05 0.14 0.05 95 1005.8
20260506101539 52 282 1.0 2.0 0.03 0.12 0.03 95 1005.6
20260506100040 51 196 1.0 2.0 0.02 0.11 0.02 95 1005.4
20260506094535 51 221 0.0 2.0 0.01 0.10 0.01 95 1005.3
20260506093040 50 232 0.0 2.0 0.00 0.09 0.00 95 1005.4
20260506091543 50 239 0.0 2.0 0.00 0.09 0.00 94 1005.5
20260506090041 50 165 1.0 4.0 0.00 0.09 0.00 94 1005.6
20260506084539 51 142 1.0 4.0 0.00 0.09 0.00 94 1005.8
20260506083038 51 20 1.0 4.0 0.00 0.09 0.00 95 1005.4
20260506081544 50 93 1.0 3.0 0.00 0.09 0.00 94 1005.2
20260506073037 50 42 2.0 3.0 0.00 0.09 0.00 94 1005.7
20260506071536 50 51 2.0 5.0 0.00 0.09 0.00 93 1005.7
20260506061539 51 51 1.0 3.0 0.00 0.09 0.00 93 1006.6
20260506044546 50 68 1.0 4.0 0.00 0.09 0.00 91 1007.6
20260506043036 51 110 1.0 4.0 0.00 0.09 0.00 91 1007.6
20260506041551 51 30 1.0 4.0 0.00 0.09 0.00 91 1008.0
20260506040041 51 67 2.0 6.0 0.00 0.09 0.00 91 1008.0
20260506034544 52 137 2.0 6.0 0.00 0.09 0.09 90 1008.0
20260506033034 52 50 1.0 12.0 0.00 0.09 0.09 89 1008.1
20260506031541 53 68 2.0 11.0 0.00 0.09 0.09 90 1007.8
20260506030041 54 53 5.0 11.0 0.00 0.09 0.09 91 1007.9
20260506024545 57 34 4.0 10.0 0.00 0.09 0.09 92 1007.8
20260506023038 57 24 3.0 7.0 0.00 0.09 0.09 92 1007.5
20260506021546 58 26 2.0 4.0 0.01 0.09 0.09 91 1007.5
20260506020033 58 44 3.0 6.0 0.01 0.09 0.09 91 1007.5
20260506014541 59 47 3.0 6.0 0.01 0.09 0.09 90 1007.0
20260506013045 59 41 1.0 4.0 0.00 0.08 0.08 88 1007.3
20260506011558 59 0 1.0 2.0 0.00 0.08 0.08 88 1007.1
20260506010034 59 212 0.0 2.0 0.00 0.08 0.08 89 1006.8
20260506004545 58 200 0.0 2.0 0.00 0.08 0.08 89 1006.6
20260506003042 58 212 0.0 2.0 0.00 0.08 0.08 90 1006.7
20260506001543 58 196 0.0 2.0 0.00 0.08 0.08 90 1006.4
20260506000046 58 0 0.0 2.0 0.00 0.08 0.08 91 1006.4
20260505234538 59 196 1.0 2.0 0.00 0.08 0.08 91 1006.2
20260505233041 59 178 0.0 1.0 0.01 0.08 0.08 92 1006.0
20260505231543 59 22 0.0 3.0 0.01 0.08 0.08 91 1006.1
20260505230040 60 205 0.0 4.0 0.01 0.08 0.08 90 1006.0
20260505224538 60 0 1.0 4.0 0.01 0.08 0.08 88 1006.2
20260505223036 60 265 0.0 2.0 0.00 0.07 0.07 88 1005.6